Christchurch, New Zealand

3:27 PM NZST on April 30, 2017 (GMT +1200)
Christchurch International

Weather History for NZCH - February, 2014

Change the Weather History Date:

Monday, February 10, 2014

  Actual Average Record
Temperature  
Mean Temperature 61 °F -  
Max Temperature 69 °F 68 °F 89 °F (2001)
Min Temperature 53 °F 50 °F 41 °F (2011)
Degree Days  
Heating Degree Days 4    
Growing Degree Days 11 (Base 50)    
Moisture  
Dew Point 48 °F    
Average Humidity 70    
Maximum Humidity 82    
Minimum Humidity 46    
Precipitation  
Precipitation 0.00 in - - ()
Sea Level Pressure  
Sea Level Pressure 30.03 in    
Wind  
Wind Speed 8 mph ()    
Max Wind Speed 14 mph    
Max Gust Speed -    
Visibility 6.2 miles    
Events      
Averages and records for this station are not official NWS values.
T = Trace of Precipitation, MM = Missing Value Source: Averaged Metar Reports

Daily Weather History Graph

Daily Weather History Graph

Search for Another Location

Airport or City:

Trip Planner

Search our weather history database for the weather conditions in past years. The results will help you decide how hot, cold, wet, or windy it might be!

Date:

Astronomy

Feb. 10, 2014 Rise Set
Actual Time 6:42 AM NZDT 8:45 PM NZDT
Civil Twilight 6:11 AM NZDT 9:16 PM NZDT
Nautical Twilight 5:32 AM NZDT 9:54 PM NZDT
Astronomical Twilight 4:50 AM NZDT 10:35 PM NZDT
Moon 5:22 PM NZDT (2/10) 2:17 AM NZDT (2/10)
Length of Visible Light 15h 05m
Length of Day
14h 02m
Waxing Gibbous, 79% of the Moon is Illuminated
Feb 10
Waxing Gibbous
Feb 15
Full
Feb 23
Last Quarter
Mar 1
New
Mar 9
First Quarter

Hourly Weather History & Observations

Time (NZDT) Temp. Dew Point Humidity Pressure Visibility Wind Dir Wind Speed Gust Speed Precip Events Conditions
12:00 AM 55.4 °F 48.2 °F 77% 30.18 in 6.2 mi SW 8.1 mph - N/A   Overcast
12:30 AM 55.4 °F 48.2 °F 77% 30.18 in 6.2 mi SW 9.2 mph - N/A   Overcast
1:00 AM 55.4 °F 48.2 °F 77% 30.18 in 6.2 mi SW 8.1 mph - N/A   Overcast
1:30 AM 55.4 °F 48.2 °F 77% 30.18 in 6.2 mi SSW 11.5 mph - N/A   Overcast
2:00 AM 55.4 °F 48.2 °F 77% 30.15 in 6.2 mi SSW 10.4 mph - N/A   Overcast
2:30 AM 55.4 °F 48.2 °F 77% 30.15 in 6.2 mi SSW 9.2 mph - N/A   Overcast
3:00 AM 55.4 °F 48.2 °F 77% 30.15 in 6.2 mi SSW 10.4 mph - N/A   Overcast
3:30 AM 55.4 °F 48.2 °F 77% 30.15 in 6.2 mi SSW 8.1 mph - N/A   Overcast
4:00 AM 55.4 °F 48.2 °F 77% 30.12 in 6.2 mi SW 8.1 mph - N/A   Overcast
4:30 AM 55.4 °F 48.2 °F 77% 30.12 in 6.2 mi SW 8.1 mph - N/A   Overcast
5:00 AM 55.4 °F 48.2 °F 77% 30.12 in 6.2 mi WSW 9.2 mph - N/A   Overcast
5:30 AM 55.4 °F 48.2 °F 77% 30.12 in 6.2 mi SW 8.1 mph - N/A   Overcast
6:00 AM 55.4 °F 48.2 °F 77% 30.12 in 6.2 mi WSW 8.1 mph - N/A   Overcast
6:30 AM 55.4 °F 48.2 °F 77% 30.09 in 6.2 mi SW 8.1 mph - N/A   Overcast
7:00 AM 53.6 °F 48.2 °F 82% 30.09 in 6.2 mi SSW 9.2 mph - N/A   Overcast
7:30 AM 55.4 °F 48.2 °F 77% 30.12 in 6.2 mi SSW 9.2 mph - N/A   Overcast
8:00 AM 55.4 °F 50.0 °F 82% 30.12 in 6.2 mi SSW 6.9 mph - N/A   Overcast
8:30 AM 55.4 °F 48.2 °F 77% 30.12 in 6.2 mi South 6.9 mph - N/A   Overcast
9:00 AM 55.4 °F 48.2 °F 77% 30.12 in 6.2 mi SSW 6.9 mph - N/A   Overcast
9:30 AM 55.4 °F 48.2 °F 77% 30.09 in 6.2 mi SW 6.9 mph - N/A   Overcast
10:00 AM 57.2 °F 46.4 °F 67% 30.09 in 6.2 mi South 6.9 mph - N/A   Overcast
10:30 AM 57.2 °F 46.4 °F 67% 30.09 in 6.2 mi South 6.9 mph - N/A   Overcast
11:00 AM 59.0 °F 46.4 °F 63% 30.06 in 6.2 mi South 8.1 mph - N/A   Overcast
11:30 AM 59.0 °F 46.4 °F 63% 30.06 in 6.2 mi South 8.1 mph - N/A   Overcast
12:00 PM 60.8 °F 46.4 °F 59% 30.06 in 6.2 mi South 6.9 mph - N/A   Overcast
12:30 PM 60.8 °F 46.4 °F 59% 30.06 in 6.2 mi SW 5.8 mph - N/A   Mostly Cloudy
1:00 PM 62.6 °F 46.4 °F 55% 30.04 in 6.2 mi South 5.8 mph - N/A   Mostly Cloudy
1:30 PM 64.4 °F 46.4 °F 52% 30.01 in 6.2 mi SSE 4.6 mph - N/A   Partly Cloudy
2:00 PM 62.6 °F 46.4 °F 55% 30.01 in 6.2 mi South 6.9 mph - N/A   Unknown
2:30 PM 64.4 °F 46.4 °F 52% 29.98 in 6.2 mi SE 4.6 mph - N/A   Unknown
3:00 PM 66.2 °F 46.4 °F 49% 29.98 in 6.2 mi SW 5.8 mph - N/A   Unknown
3:30 PM 68.0 °F 46.4 °F 46% 29.95 in 6.2 mi SE 5.8 mph - N/A   Unknown
4:00 PM 69.8 °F 50.0 °F 49% 29.95 in 6.2 mi East 12.7 mph - N/A   Unknown
4:30 PM 64.4 °F 50.0 °F 59% 29.95 in 6.2 mi East 11.5 mph - N/A   Unknown
5:00 PM 64.4 °F 50.0 °F 59% 29.92 in 6.2 mi ENE 12.7 mph - N/A   Unknown
5:30 PM 64.4 °F 51.8 °F 64% 29.92 in 6.2 mi East 11.5 mph - N/A   Partly Cloudy
6:00 PM 62.6 °F 50.0 °F 63% 29.92 in 6.2 mi East 11.5 mph - N/A   Partly Cloudy
6:30 PM 62.6 °F 50.0 °F 63% 29.92 in 6.2 mi East 12.7 mph - N/A   Unknown
7:00 PM 60.8 °F 50.0 °F 68% 29.92 in 6.2 mi ENE 12.7 mph - N/A   Partly Cloudy
7:30 PM 59.0 °F 50.0 °F 72% 29.92 in 6.2 mi ENE 12.7 mph - N/A   Scattered Clouds
8:00 PM 57.2 °F 50.0 °F 77% 29.89 in 6.2 mi ENE 13.8 mph - N/A   Partly Cloudy
8:30 PM 57.2 °F 50.0 °F 77% 29.89 in 6.2 mi ENE 13.8 mph - N/A   Partly Cloudy
9:00 PM 57.2 °F 51.8 °F 82% 29.89 in 6.2 mi ENE 10.4 mph - N/A   Mostly Cloudy
9:30 PM 57.2 °F 50.0 °F 77% 29.89 in 6.2 mi ENE 11.5 mph - N/A   Overcast
10:00 PM 57.2 °F 50.0 °F 77% 29.89 in 6.2 mi ENE 10.4 mph - N/A   Overcast
10:30 PM 57.2 °F 50.0 °F 77% 29.89 in 6.2 mi ENE 10.4 mph - N/A   Overcast
11:00 PM 57.2 °F 50.0 °F 77% 29.89 in 6.2 mi ENE 10.4 mph - N/A   Overcast
11:30 PM 57.2 °F 50.0 °F 77% 29.86 in 6.2 mi NE 9.2 mph - N/A   Overcast